"Pseudo-MPEC" for P20PdYx

Created 2019 Jul 12 20:07:17 UT using Find_Orb

Click here for an explanation of pseudo-MPECs

 
 Astrometry: 
     P20PdYx  C2019 06 30VBy;$PqX[05nAstrometry4VV'#yj^Qu0HJ!lI1he7ALwN,28BLxF52
     P20PdYx  C2019 06 307-UjxnAs$CCYiFjX1[SkQ%BY2Ur.5redacted;x`L,;^c8Wg[TK!F52
     P20PdYx  C2019 06 30D]fj21pTclickk\/=Dy;*K!yB_cZp*o%here+tZfor)WFc2uLg@.F52
     P20PdYx  C2019 06 30P]ROR6!T5explanationwmxW)Ch!#q2#[46V`WPn-37e6lsiA$_aF52
     P20PdYx  C2019 07 01.20827 14 12 58.57 +22 15 52.7    ~715q 21.8 GVNEOCPI52
     P20PdYx  C2019 07 01.21849 14 12 58.47 +22 15 47.7    ~715q       VNEOCPI52
     P20PdYx  C2019 07 01.22713 14 12 58.46 +22 15 45.4    ~715q       VNEOCPI52

Station data:
(F52) Pan-STARRS 2, Haleakala  (N20.707384 W156.255910)  US/Hawaii. 1.8-m
   Ritchey-Chrétien + CCD.
(I52) Steward Observatory, Mt. Lemmon Station  (N32.442547 W110.788920)
   US/Arizona.  Observers T. A. Pruyne, B. M. Africano, E. J. Christensen, G.
   A. Farneth, D. C. Fuls, A. R. Gibbs, A. D. Grauer, H. Groeller, J. A.
   Johnson, R. A. Kowalski, S. M. Larson, G. J. Leonard, R. L. Seaman, F. C.
   Shelly. 1.0-m reflector + CCD.

Orbital elements:  P20PdYx
   Perihelion 2021 Oct 31.444960 +/- 605 TT = 10:40:44 (JD 2459518.944960)
Epoch 2019 Jul  1.0 TT = JDT 2458665.5                        AutoNEOCP
M 206.60801749 +/- 100              (J2000 ecliptic)
n   0.17973271 +/- 0.192            Peri.  237.41317 +/- 60
a   3.10969613 +/- 2.21             Node   149.62855 +/- 37
e   0.3237854 +/- 0.144             Incl.   32.16059 +/- 3.7
P   5.48                   H 15.1   G  0.15   U 11.7  SR
q 2.10282169 +/- 1.81    Q 4.11657058 +/- 7.87
From 7 observations 2019 June 30-July 1 (21.5 hr); mean residual 0".32
Residuals in arcseconds: 
190630 F52  .03-  .13+    190630 F52  .10+  .03+    190701 I52  .22-  .37+    
190630 F52  .06-  .21-    190701 I52  .62+  .33+    
190630 F52  .02-  .06+    190701 I52  .39-  .70-    

Ephemerides (geocentric):
Date (UTC) HH   RA              Dec         delta   r     elong  mag " sig PA
---- -- -- --  -------------   -----------  ------ ------ -----  --- ---- ---
2019 07 12 20  14 13 40.918   +20 55 34.54  3.8696 4.0444  92.5 21.9  605  24
2019 07 12 21  14 13 41.295   +20 55 16.25  3.8700 4.0443  92.5 21.9  609  24
2019 07 12 22  14 13 41.674   +20 54 57.96  3.8705 4.0443  92.5 21.9  613  24
2019 07 12 23  14 13 42.054   +20 54 39.65  3.8710 4.0442  92.5 21.9  617  24
2019 07 13 00  14 13 42.435   +20 54 21.35  3.8715 4.0442  92.4 21.9  621  24
2019 07 13 01  14 13 42.819   +20 54 03.03  3.8720 4.0442  92.4 21.9  625  24
2019 07 13 02  14 13 43.203   +20 53 44.71  3.8725 4.0441  92.4 21.9  629  24
2019 07 13 03  14 13 43.590   +20 53 26.39  3.8730 4.0441  92.3 21.9  633  24
2019 07 13 04  14 13 43.978   +20 53 08.06  3.8735 4.0441  92.3 21.9  638  24
2019 07 13 05  14 13 44.367   +20 52 49.72  3.8740 4.0440  92.3 21.9  642  24
2019 07 13 06  14 13 44.758   +20 52 31.37  3.8745 4.0440  92.2 21.9  646  24
2019 07 13 07  14 13 45.151   +20 52 13.02  3.8749 4.0439  92.2 21.9  650  24
2019 07 13 08  14 13 45.545   +20 51 54.67  3.8754 4.0439  92.2 21.9  654  24
2019 07 13 09  14 13 45.940   +20 51 36.30  3.8759 4.0439  92.2 21.9  658  24
2019 07 13 10  14 13 46.338   +20 51 17.93  3.8764 4.0438  92.1 21.9  663  24
2019 07 13 11  14 13 46.736   +20 50 59.56  3.8769 4.0438  92.1 21.9  667  24
2019 07 13 12  14 13 47.137   +20 50 41.18  3.8774 4.0438  92.1 21.9  671  24
2019 07 13 13  14 13 47.539   +20 50 22.79  3.8779 4.0437  92.0 21.9  675  24
2019 07 13 14  14 13 47.942   +20 50 04.40  3.8784 4.0437  92.0 21.9  680  24
2019 07 13 15  14 13 48.347   +20 49 46.00  3.8789 4.0436  92.0 21.9  684  24
2019 07 13 16  14 13 48.754   +20 49 27.59  3.8794 4.0436  91.9 21.9  688  24
2019 07 13 17  14 13 49.162   +20 49 09.18  3.8798 4.0436  91.9 21.9  692  24
2019 07 13 18  14 13 49.572   +20 48 50.77  3.8803 4.0435  91.9 21.9  697  24
2019 07 13 19  14 13 49.983   +20 48 32.34  3.8808 4.0435  91.9 21.9  701  24
2019 07 13 20  14 13 50.396   +20 48 13.91  3.8813 4.0435  91.8 21.9  705  24
2019 07 13 21  14 13 50.810   +20 47 55.48  3.8818 4.0434  91.8 21.9  710  24
2019 07 13 22  14 13 51.226   +20 47 37.04  3.8823 4.0434  91.8 21.9  714  24
2019 07 13 23  14 13 51.643   +20 47 18.59  3.8828 4.0433  91.7 21.9  718  24
2019 07 14 00  14 13 52.062   +20 47 00.14  3.8833 4.0433  91.7 21.9  723  24
2019 07 14 01  14 13 52.483   +20 46 41.68  3.8838 4.0433  91.7 21.9  727  24
2019 07 14 02  14 13 52.905   +20 46 23.21  3.8843 4.0432  91.6 21.9  732  24
2019 07 14 03  14 13 53.328   +20 46 04.74  3.8848 4.0432  91.6 21.9  736  24
2019 07 14 04  14 13 53.754   +20 45 46.27  3.8852 4.0431  91.6 21.9  740  24
2019 07 14 05  14 13 54.180   +20 45 27.79  3.8857 4.0431  91.6 21.9  745  24
2019 07 14 06  14 13 54.609   +20 45 09.30  3.8862 4.0431  91.5 21.9  749  24
2019 07 14 07  14 13 55.038   +20 44 50.80  3.8867 4.0430  91.5 21.9  754  24
2019 07 14 08  14 13 55.470   +20 44 32.30  3.8872 4.0430  91.5 21.9  758  24
2019 07 14 09  14 13 55.903   +20 44 13.80  3.8877 4.0430  91.4 21.9  763  24
2019 07 14 10  14 13 56.337   +20 43 55.29  3.8882 4.0429  91.4 21.9  767  24
2019 07 14 11  14 13 56.773   +20 43 36.77  3.8887 4.0429  91.4 21.9  772  24
2019 07 14 12  14 13 57.211   +20 43 18.24  3.8892 4.0428  91.3 21.9  776  24
2019 07 14 13  14 13 57.650   +20 42 59.72  3.8897 4.0428  91.3 21.9  781  24
2019 07 14 14  14 13 58.090   +20 42 41.18  3.8902 4.0428  91.3 21.9  785  24
2019 07 14 15  14 13 58.533   +20 42 22.64  3.8906 4.0427  91.3 21.9  790  24
2019 07 14 16  14 13 58.976   +20 42 04.09  3.8911 4.0427  91.2 21.9  794  24
2019 07 14 17  14 13 59.422   +20 41 45.54  3.8916 4.0427  91.2 21.9  799  24
2019 07 14 18  14 13 59.868   +20 41 26.98  3.8921 4.0426  91.2 21.9  804  24
2019 07 14 19  14 14 00.317   +20 41 08.42  3.8926 4.0426  91.1 21.9  808  24